Location: Niverville
(49.6028°N, 97.0419°W)
Time: 14:05:09
(UTC-05:00)

Daily predictions for brighter satellites

Satellite Brightness Start Highest point End
(mag) Time Altitude Azimuth Time Altitude Azimuth Time Altitude Azimuth
Cosmos 1818 4.5 22:14:16 10° NW 22:19:25 43° WSW 22:24:31 10° S
Cosmos 2237 Rocket 4.5 22:17:50 10° NW 22:21:44 19° W 22:25:38 10° SW
Cosmos 1766 Rocket 3.8 22:17:43 10° S 22:21:54 51° E 22:26:09 10° NNE
Cosmos 1328 Rocket 4.1 22:20:04 10° N 22:24:16 45° ENE 22:28:25 10° SSE
Terra 3.0 22:20:25 10° SE 22:24:35 31° ENE 22:28:45 10° N
Cosmos 1741 Rocket 4.1 22:19:17 10° SSW 22:24:38 86° ESE 22:29:58 10° NNE
YAOGAN 11 4.2 22:23:13 10° SSE 22:27:43 85° ENE 22:32:19 10° NNW
USA 245 3.3 22:24:55 10° SSE 22:28:24 85° ENE 22:32:51 10° NNW
Cosmos 1515 Rocket 4.3 22:24:56 10° N 22:29:00 38° ENE 22:33:02 10° SE
Cosmos 1603 3.8 22:24:04 10° NNW 22:29:47 90° ENE 22:35:25 10° SSE
Cosmos 332 Rocket 3.9 22:24:58 10° NNW 22:29:54 74° ENE 22:34:48 10° SSE
Cosmos 2228 Rocket 3.5 22:27:46 10° N 22:32:16 51° ENE 22:36:44 10° SSE
SL-08 RB Rocket 3.8 22:28:54 10° SSE 22:33:28 83° ENE 22:38:07 10° NNW
Cosmos 1151 Rocket 4.0 22:29:35 10° N 22:33:37 34° ENE 22:37:36 10° SE
Helios 1B rocket 4.1 22:32:37 10° N 22:36:29 37° WNW 22:40:18 10° SW
Cosmos 1674 3.0 22:33:51 10° SSW 22:37:36 69° WNW 22:41:22 10° N
Cosmos 1908 4.4 22:34:04 10° NNW 22:37:46 42° W 22:41:26 10° SSW
Cosmos 1743 Rocket 4.2 22:34:15 10° SSE 22:38:12 36° E 22:42:11 10° NNE
H-2A R/B 3.2 22:34:30 10° SE 22:38:16 30° ENE 22:41:58 10° N
Cosmos 1455 4.1 22:36:48 10° NNE 22:39:31 18° ENE 22:42:12 10° ESE
Cosmos 2227 Rocket 4.0 22:36:19 10° WSW 22:41:32 37° NW 22:46:47 10° NNE
Cosmos 2084 3.1 22:38:51 10° SW 22:42:47 78° SE 22:46:37 10° NE
ERBS 2.3 22:40:39 10° WNW 22:44:03 73° SW 22:47:11 12° SE
IGS 5A 4.2 22:41:12 10° SE 22:45:04 39° ENE 22:48:58 10° N
Cosmos 1943 3.4 22:40:17 10° NNW 22:45:56 66° ENE 22:51:21 11° SE
CZ-3B DEB 4.4 22:35:20 10° W 22:45:56 72° N 22:59:09 10° ENE
SL-16 R/B 3.8 22:41:32 10° NW 22:46:17 28° WSW 22:51:01 10° SSW
ARGOS 3.6 22:44:17 10° S 22:49:39 63° WSW 22:55:03 10° NNW
KORONAS-FOTON 4.1 22:47:53 10° SSW 22:51:41 71° WNW 22:55:29 10° N
Cosmos 1814 Rocket 4.1 22:51:12 10° NNW 22:56:34 80° WSW 23:01:39 11° SSE
CZ-3A R/B 0.6 22:56:44 10° NW 22:57:39 21° NNE 22:58:27 12° ENE
Nimbus 7 Rocket 4.5 22:51:48 10° NNE 22:57:51 70° ESE 23:03:49 10° S
Lacrosse 4 Rocket 4.4 22:55:39 10° W 22:59:04 22° NW 23:02:35 10° NNE
Cosmos 2123 Rocket 4.0 22:57:20 10° S 23:03:31 81° E 23:09:45 10° N
Cosmos 1486 Rocket 4.3 23:01:41 10° S 23:06:43 48° ESE 23:11:49 10° NNE
Cosmos 841 Rocket 3.5 23:02:48 10° NNW 23:08:06 84° ENE 23:12:35 14° SSE
Cosmos 1703 4.2 23:07:01 15° SSE 23:09:48 33° E 23:13:25 10° NNE
Cosmos 1763 Rocket 3.5 23:05:29 10° NNW 23:10:37 76° WSW 23:15:02 14° SSE
SPOT 1/Viking Rocket 4.0 23:06:32 10° S 23:11:35 57° WSW 23:16:41 10° NNW
Cosmos 220 Rocket 4.1 23:07:54 10° S 23:12:16 63° ESE 23:16:37 10° NNE
Cosmos 2285 Rocket 4.3 23:06:51 10° NNW 23:13:08 61° ENE 23:18:35 14° SE
SME Rocket 4.2 23:13:34 13° SE 23:16:41 37° ENE 23:21:17 10° N
PSLV R/B 3.7 23:15:20 19° SE 23:17:03 40° ENE 23:19:46 10° N
Cosmos 371 Rocket 3.9 23:15:34 10° NNW 23:20:14 51° WSW 23:24:25 13° S
Meteor 1-11 4.4 23:14:31 10° S 23:20:16 66° E 23:26:03 10° NNE
Cosmos 2058 3.1 23:18:06 15° S 23:21:27 55° E 23:25:36 10° NNE
Cosmos 1725 Rocket 4.4 23:15:43 10° NNW 23:21:53 62° W 23:28:00 10° S
Lacrosse 5 2.9 23:17:49 10° WNW 23:22:19 33° SW 23:25:53 15° S
SPOT 5 4.3 23:18:02 10° SSW 23:22:28 34° W 23:27:09 10° NNW
deb Chang Zheng 4 4.1 23:19:43 10° NNE 23:23:53 42° E 23:26:57 17° SSE
Cosmos 2227 4.5 23:20:21 10° SW 23:26:04 74° WNW 23:31:49 10° NNE
Tiangong 1 2.4 23:24:14 10° SW 23:26:17 19° S 23:26:17 19° S
Abrixas rocket 3.4 23:25:22 10° W 23:28:10 27° SSW 23:29:25 21° S
Meteor 1-27 4.4 23:24:40 10° NNW 23:30:32 79° W 23:35:26 15° S
RESURS DK-1 4.1 23:27:14 10° NW 23:30:39 25° WSW 23:34:01 10° SSW
Cosmos 1707 Rocket 4.5 23:26:43 10° N 23:30:55 38° ENE 23:33:52 17° SE
Cosmos 1867 4.3 23:25:43 10° SW 23:31:05 57° NW 23:36:30 10° NE
SL-14 R/B 4.4 23:38:33 10° SSW 23:42:20 42° WNW 23:46:06 10° N
Cosmos 1626 2.0 23:39:49 18° S 23:42:26 77° E 23:46:11 10° NNE
Cosmos 2151 3.1 23:39:05 13° SSW 23:42:57 79° WNW 23:47:17 10° N
CZ-4C R/B 3.6 23:41:35 16° SE 23:43:11 18° ESE 23:46:54 10° ENE
Cosmos 1500 Rocket 3.9 23:38:45 10° SSW 23:43:12 68° WNW 23:47:40 10° N
Cosmos 1726 4.5 23:40:53 10° NW 23:43:30 18° W 23:46:06 10° SW
USA 234 3.2 23:37:32 10° ENE 23:44:07 80° SE 23:50:41 10° SW
Cosmos 1464 Rocket 4.1 23:41:03 10° N 23:47:10 65° ENE 23:51:40 19° SSE
Cosmos 1666 Rocket 4.5 23:48:38 21° SE 23:50:58 35° E 23:55:01 10° NNE
COSMOS 2406 4.0 23:46:07 10° NNW 23:51:35 46° NE 23:56:14 14° ESE
Cosmos 2263 Rocket 2.1 23:46:13 10° SSW 23:51:44 72° ESE 23:57:20 10° NNE
Cosmos 1503 Rocket 4.1 23:48:28 16° S 23:52:32 60° ESE 23:57:38 10° NNE
CARTOSAT-1 4.5 23:49:37 15° SSW 23:52:57 42° W 23:57:04 10° NNW
